TimeEST,TemperatureF,Dew PointF,Humidity,Sea Level PressureIn,VisibilityMPH,Wind Direction,Wind SpeedMPH,Gust SpeedMPH,PrecipitationIn,Events,Conditions,WindDirDegrees,DateUTC
12:53 AM,46.0,33.1,61,30.31,10.0,North,6.9,-,N/A,,Clear,350,2013-12-25 05:53:00
1:53 AM,45.0,34.0,65,30.29,10.0,North,11.5,-,N/A,,Clear,350,2013-12-25 06:53:00
2:53 AM,44.1,34.0,68,30.29,10.0,North,8.1,-,N/A,,Clear,350,2013-12-25 07:53:00
3:53 AM,43.0,34.0,71,30.28,10.0,North,8.1,-,N/A,,Clear,350,2013-12-25 08:53:00
4:53 AM,41.0,35.1,79,30.27,10.0,NNW,9.2,-,N/A,,Clear,330,2013-12-25 09:53:00
5:53 AM,42.1,35.1,76,30.27,10.0,NNW,9.2,-,N/A,,Clear,330,2013-12-25 10:53:00
6:53 AM,41.0,37.0,86,30.28,10.0,NNW,8.1,-,N/A,,Clear,330,2013-12-25 11:53:00
7:53 AM,43.0,39.0,86,30.29,10.0,NNW,6.9,-,N/A,,Clear,340,2013-12-25 12:53:00
8:53 AM,48.0,42.1,80,30.31,10.0,NNW,8.1,-,N/A,,Partly Cloudy,330,2013-12-25 13:53:00
9:53 AM,61.0,51.1,70,30.32,10.0,NNE,15.0,20.7,N/A,,Partly Cloudy,30,2013-12-25 14:53:00
10:35 AM,59.0,51.1,75,30.33,10.0,NNE,15.0,26.5,N/A,,Mostly Cloudy,30,2013-12-25 15:35:00
10:53 AM,59.0,51.1,75,30.32,10.0,NE,13.8,25.3,N/A,,Mostly Cloudy,40,2013-12-25 15:53:00
11:53 AM,57.9,51.1,78,30.31,10.0,NNE,16.1,28.8,N/A,,Overcast,30,2013-12-25 16:53:00
12:53 PM,57.0,50.0,77,30.29,10.0,NE,16.1,-,N/A,,Overcast,40,2013-12-25 17:53:00
1:53 PM,55.9,50.0,80,30.28,10.0,NNE,13.8,23.0,N/A,,Overcast,20,2013-12-25 18:53:00
2:02 PM,55.9,50.0,80,30.28,9.0,NNE,15.0,21.9,N/A,,Overcast,30,2013-12-25 19:02:00
2:53 PM,55.9,51.1,84,30.27,8.0,NNE,12.7,21.9,N/A,,Overcast,30,2013-12-25 19:53:00
3:53 PM,55.9,51.1,84,30.27,7.0,NNE,13.8,20.7,N/A,,Overcast,20,2013-12-25 20:53:00
4:53 PM,55.9,51.1,84,30.27,7.0,North,12.7,23.0,N/A,,Overcast,10,2013-12-25 21:53:00
5:53 PM,55.0,51.1,86,30.28,8.0,North,12.7,20.7,N/A,,Overcast,10,2013-12-25 22:53:00
6:53 PM,55.0,51.1,86,30.27,8.0,North,10.4,-,N/A,,Overcast,10,2013-12-25 23:53:00
7:53 PM,55.0,51.1,86,30.27,8.0,NNE,13.8,21.9,N/A,,Overcast,20,2013-12-26 00:53:00
8:53 PM,55.0,51.1,86,30.27,8.0,North,9.2,-,N/A,,Overcast,10,2013-12-26 01:53:00
9:53 PM,55.9,52.0,87,30.27,8.0,North,12.7,-,N/A,,Overcast,10,2013-12-26 02:53:00
10:53 PM,55.9,52.0,87,30.27,8.0,North,12.7,-,N/A,,Overcast,10,2013-12-26 03:53:00
11:53 PM,55.0,51.1,86,30.27,9.0,North,10.4,-,N/A,,Overcast,360,2013-12-26 04:53:00